Tacoma, WA
on Thursday, November 29, 2012

Thursday
Previous Day Next Day
Daily Summary
 ActualAverage (KSEA)Record (KSEA)
Temperature
Mean Temperature °F 42°F  
Max Temperature 54°F 48°F 59°F (1999)
Min Temperature 38°F 37°F 18°F (2006)
Degree Days
Heating Degree Days 19 23  
Month to date heating degree days 564  
Since 1 July heating degree days 1161  
Cooling Degree Days 0 0  
Month to date cooling degree days 0  
Year to date cooling degree days 189  
Moisture
Dew Point 43°F   
Average Humidity 87    
Maximum Humidity 100    
Minimum Humidity 71    
Precipitation
Precipitation 0.10 in 0.23 in 1.08 in (1964)
Month to date precipitation 6.35  
Year to date precipitation 31.92  
Snow
Snow 0.00 in in 1.00 in (2006)
Month to date snowfall  
Since 1 July snowfall  
Snow Depth in   
Wind
Wind Speed 5 mph   
Max Wind Speed 13 mph   
Max Gust Speed mph   
Visibility 9 miles   
Events Rain   

Key: T is trace of precipitation, MM is missing value
Source: NWS Daily Summary
Time(PST)TemperatureDew PointHumidity Pressure Visibility Wind DirectionWind SpeedGust SpeedPrecipitationEvents Conditions
12:08 AM 39.2°F 39.2°F 100% 29.71 in 3.0 miles ESE 4.6 mph - N/A   Clear
12:23 AM 39.2°F 39.2°F 100% 29.70 in 4.0 miles East 2.3 mph - N/A   Partly Cloudy
12:58 AM 38.3°F 38.3°F 100% 29.70 in 3.0 miles East 3.5 mph - N/A   Scattered Clouds
1:58 AM 38.8°F 38.8°F 100% 29.69 in 6.0 miles South 2.3 mph - N/A   Overcast
2:58 AM 39.4°F 39.4°F 100% 29.67 in 10.0 miles Calm Calm - N/A   Overcast
3:35 AM 39.2°F 39.2°F 100% 29.63 in 10.0 miles Calm Calm - N/A Rain Light Rain
3:46 AM 39.2°F 39.2°F 100% 29.62 in 8.0 miles ENE 2.3 mph - N/A   Scattered Clouds
3:58 AM 40.1°F 40.1°F 100% 29.63 in 8.0 miles ESE 2.3 mph - 0.00 in   Mostly Cloudy
4:35 AM 39.2°F 39.2°F 100% 29.59 in 8.0 miles Calm Calm - N/A   Mostly Cloudy
4:48 AM 41.0°F 41.0°F 100% 29.58 in 7.0 miles NE 1.2 mph - N/A   Scattered Clouds
4:58 AM 40.5°F 40.5°F 100% 29.60 in 9.0 miles East 2.3 mph - 0.00 in   Partly Cloudy
5:25 AM 41.0°F 41.0°F 100% 29.56 in 8.0 miles ESE 4.6 mph - N/A   Partly Cloudy
5:30 AM 41.0°F 41.0°F 100% 29.55 in 8.0 miles East 6.9 mph - N/A Rain Light Rain
5:35 AM 42.8°F 42.8°F 100% 29.56 in 10.0 miles East 1.2 mph - N/A Rain Light Rain
5:41 AM 41.0°F 41.0°F 100% 29.56 in 10.0 miles SSW 3.5 mph - N/A   Partly Cloudy
5:58 AM 42.6°F 42.6°F 100% 29.56 in 10.0 miles East 4.6 mph - 0.00 in   Scattered Clouds
6:08 AM 42.8°F 42.8°F 100% 29.54 in 10.0 miles ENE 2.3 mph - N/A Rain Light Rain
6:58 AM 44.1°F 44.1°F 100% 29.56 in 10.0 miles SE 3.5 mph - 0.01 in Rain Light Rain
7:33 AM 51.8°F 44.6°F 76% 29.52 in 10.0 miles SE 8.1 mph - N/A   Mostly Cloudy
7:39 AM 51.8°F 44.6°F 76% 29.52 in 10.0 miles SE 8.1 mph - N/A Rain Light Rain
7:48 AM 53.6°F 44.6°F 72% 29.52 in 10.0 miles SSE 8.1 mph - N/A   Mostly Cloudy
7:58 AM 53.2°F 43.9°F 71% 29.54 in 10.0 miles SSE 8.1 mph - 0.00 in   Mostly Cloudy
8:31 AM 50.0°F 44.6°F 82% 29.55 in 10.0 miles South 8.1 mph - N/A Rain Light Rain
8:58 AM 52.2°F 45.9°F 79% 29.59 in 10.0 miles SSW 9.2 mph - 0.01 in Rain Light Rain
9:58 AM 48.9°F 48.7°F 99% 29.62 in 10.0 miles SSE 5.8 mph - 0.02 in Rain Light Rain
10:10 AM 50.0°F 48.2°F 94% 29.61 in 10.0 miles SSE 10.4 mph - N/A   Overcast
10:58 AM 52.7°F 46.9°F 81% 29.62 in 10.0 miles SSE 10.4 mph - 0.00 in   Overcast
11:55 AM 53.6°F 46.4°F 77% 29.61 in 10.0 miles South 12.7 mph - N/A Rain Light Rain
11:58 AM 53.4°F 46.2°F 77% 29.63 in 10.0 miles South 11.5 mph - 0.00 in Rain Light Rain
12:40 PM 53.6°F 50.0°F 88% 29.59 in 10.0 miles SE 3.5 mph - N/A   Mostly Cloudy
12:58 PM 54.1°F 48.9°F 82% 29.61 in 10.0 miles SSE 8.1 mph - 0.03 in   Scattered Clouds
1:58 PM 54.3°F 45.5°F 72% 29.60 in 10.0 miles SSE 4.6 mph - N/A   Overcast
2:58 PM 54.1°F 45.7°F 73% 29.59 in 10.0 miles ESE 4.6 mph - N/A   Overcast
3:58 PM 52.5°F 44.8°F 75% 29.58 in 10.0 miles SSE 5.8 mph - N/A   Overcast
4:58 PM 52.5°F 44.2°F 73% 29.56 in 10.0 miles SE 5.8 mph - N/A   Overcast
5:58 PM 52.2°F 43.5°F 72% 29.56 in 10.0 miles SSE 9.2 mph - N/A   Overcast
6:27 PM 51.8°F 44.6°F 76% 29.53 in 10.0 miles South 11.5 mph - N/A Rain Light Rain
6:36 PM 51.8°F 44.6°F 76% 29.53 in 10.0 miles South 10.4 mph - N/A   Overcast
6:44 PM 51.8°F 44.6°F 76% 29.53 in 10.0 miles South 9.2 mph - N/A Rain Light Rain
6:53 PM 51.8°F 44.6°F 76% 29.52 in 10.0 miles SSE 6.9 mph - N/A   Mostly Cloudy
6:58 PM 51.3°F 44.6°F 78% 29.54 in 10.0 miles SSE 8.1 mph - 0.00 in   Mostly Cloudy
7:58 PM 48.9°F 42.4°F 78% 29.50 in 10.0 miles South 3.5 mph - N/A   Mostly Cloudy
8:58 PM 48.7°F 43.2°F 81% 29.52 in 10.0 miles SSE 8.1 mph - N/A   Overcast
9:58 PM 49.5°F 42.4°F 77% 29.49 in 10.0 miles ESE 4.6 mph - N/A   Mostly Cloudy
10:58 PM 46.4°F 42.8°F 87% 29.47 in 10.0 miles ENE 1.2 mph - N/A   Overcast
11:18 PM 48.2°F 42.8°F 82% 29.46 in 10.0 miles South 3.5 mph - N/A Rain Light Rain
11:33 PM 48.2°F 44.6°F 87% 29.46 in 9.0 miles South 4.6 mph - N/A Rain Light Rain
11:48 PM 46.4°F 44.6°F 93% 29.45 in 10.0 miles South 1.2 mph - N/A Rain Light Rain
11:58 PM 46.2°F 45.3°F 97% 29.47 in 10.0 miles ESE 2.3 mph - 0.03 in Rain Light Rain
Moon Phase
Nov. 29 Dec. 06 Dec. 13 Dec. 20 Dec. 28
Sunrise:07:33 AM (PST) Moon Rise:05:30 PM (PST)11/29
Sunset:04:22 PM (PST) Moon Set:08:25 AM (PST)11/29

Copyright © 2014 The Weather Underground, Inc.